星链-32082 (STARLINK-32082)

导读

STARLINK-32082是美国SpaceX公司于2024年8月2日发射的星链(Starlink)低轨互联网通信卫星,隶属于全球规模最大的低轨卫星星座。星链星座旨在为全球缺乏传统网络基础设施的地区提供高速低延迟宽带服务。该卫星采用平板设计,搭载霍尔推进器,具备自主避撞能力,寿命结束后会主动离轨再入大气层焚毁,减少空间碎片影响,单星设计使用寿命约为5到7年。

基本信息
目录编号:
60346
目录名称:
STARLINK-32082
国际标识:
2024-136T
轨道中心:
EARTH
卫星名称:
星链-32082 (STARLINK-32082)
卫星全名:
星链-32082 (STARLINK-32082)
卫星状态:
在轨 (已飞行685 天)
发射日期:
2024-08-02 UTC
国别 :
美国 (US)
星等 :
--
轨道信息
数据来源 国际轨道数据
星历时间: 2026-06-18T01:33:53+0800
7小时前
查看轨道信息
半长轴: 6853.363km
偏心率: 0.000119
轨道倾角: 53.163°
近地点辐角 95.002°
升交点赤经 330.826°
平近点角 265.112°
近地点: 474.41km
远地点: 476.042km
周期: 94.106分钟
每日圈数: 15.301966
详细信息
卫星平台:
Starlink v2.0 mini
运营商:
太空探索技术公司
运营商所在国:
美国
制造商(研发单位):
太空探索技术公司
制造商所在国:
美国
使用方式:
暂无
卫星简介
星链(Starlink)计划是由太空探索技术公司(SpaceX)提出的一个巨型低轨卫星互联网星座项目,计划在2019年至2024年间在太空搭建由约1.2万颗卫星组成的“星链”网络,其中1584颗将部署在地球上空550千米处的近地轨道,并从2020年开始工作。该卫星仍在工作。
2D轨道图
3D轨道图
轨道高度分析图
轨道倾角分析图
轨道综合分析图
查看轨道综合分析图